Location: Shenandoah County Park
(38.9356°N, 78.4524°W)
Time: 10:52:15
(UTC-04:00)

Vanguard 1 Rocket - Pass Details

Date: 09 February 2023
Orbit: 652 x 4223 km, 34.3° (Epoch: 24 March)

Event Time Altitude Azimuth Distance (km) Brightness Sun altitude
Rises 19:58:01 0° 271° (W) 7,540 13.4 -26.5°
Reaches altitude 10° 20:09:18 10° 245° (WSW) 7,165 12.7 -28.6°
Maximum altitude 20:16:01 12° 229° (SW) 7,206 12.4 -29.9°
Drops below altitude 10° 20:23:03 10° 213° (SSW) 7,418 12.3 -31.3°
Sets 20:36:04 0° 187° (S) 8,137 12.2 -33.8°
